Location: Great Falls
(47.5000°N, 111.3000°W)
Time: 20:59:18
(UTC-06:00)

X-37B - Visible Passes

Search period start: 24 June 2021 00:00
Search period end: 04 July 2021 00:00
Orbit: 386 x 389 km, 45.0° (Epoch: 23 June)

Date Brightness Start Highest point End Pass type
(mag) Time Alt. Az. Time Alt. Az. Time Alt. Az.
24 Jun 1.2 22:50:35 10° SW 22:53:31 35° SSE 22:56:28 10° E visible
25 Jun 1.5 00:26:48 10° W 00:28:56 36° WSW 00:28:56 36° WSW visible
25 Jun 0.7 23:28:30 10° WSW 23:31:37 52° S 23:33:13 24° ESE visible
26 Jun 3.1 01:05:01 10° W 01:05:29 13° W 01:05:29 13° W visible
26 Jun 0.9 22:30:15 10° WSW 22:33:18 45° S 22:36:23 10° E visible
27 Jun 0.8 00:06:39 10° W 00:09:34 49° SSW 00:09:34 49° SSW visible
27 Jun 0.7 23:08:18 10° W 23:11:26 54° S 23:13:32 19° ESE visible
28 Jun 2.8 00:44:57 10° W 00:45:47 16° WSW 00:45:47 16° WSW visible
28 Jun 0.8 22:10:01 10° WSW 22:13:08 53° S 22:16:15 10° E visible
28 Jun 1.0 23:46:32 10° W 23:49:34 41° SSW 23:49:43 41° S visible
29 Jun 0.8 22:48:09 10° W 22:51:16 50° S 22:53:36 16° ESE visible
30 Jun 2.9 00:25:00 10° WSW 00:25:53 15° WSW 00:25:53 15° WSW visible
30 Jun 1.5 23:26:28 10° W 23:29:19 31° SSW 23:29:46 29° S visible
01 Jul 1.2 22:28:02 10° W 22:31:04 41° SSW 22:33:40 13° SE visible
02 Jul 3.1 00:05:21 10° WSW 00:05:56 12° WSW 00:05:56 12° WSW visible
02 Jul 2.1 23:06:31 10° WSW 23:09:03 22° SSW 23:09:51 20° S visible
03 Jul 1.7 22:07:58 10° W 22:10:51 31° SSW 22:13:42 10° SE visible
